www.pogodaiklimat.ru

Погода и климат >> Архив погоды >> Россия >> Якутия >> Верхоянск


АРХИВ ПОГОДЫ в Верхоянске

Время (UTC), дата Ветер
(напр.,м/с)
 
Видим.   Явления Облачность Т
(С)
Тd
(С)
f
(%)
Тe
(С)
Тes
(С)
Комфортность P
(гПа)
Po
(гПа)
Тmin
(С)
Tmax
(С)
R
(мм)
R24
(мм)
S
(см)
03 9.07 СЗ 3 50 км 10/0
[Cs]
+19.7 +11.1 58 +21 +29 комфорт 1019.6 1003.4
06 9.07 С 4 50 км 10/0
[Cs]
+18.4 +10.0 58 +19 +23 прохладно 1018.5 1002.3
09 9.07 С 3 50 км 10/1 1000 м
[Sc Cc]
+17.2 +8.7 57 +17 +19 прохладно 1019.7 1003.4 +20.2
12 9.07 С 3 50 км 10/3 1000 м
[Sc Cs]
+15.8 +7.6 58 +15 +15 прохладно 1020.0 1003.6
15 9.07 СВ 2 50 км 10/1 1500 м
[Sc Ac trans Cs]
+12.3 +5.4 63 +12 +12 прохладно 1019.8 1003.2
18 9.07 С 1 50 км 10/0
[Ac trans Cs]
+10.7 +4.7 66 +11 +11 по сезону 1019.5 1002.8
21 9.07 С 2 50 км 10/1 1000 м
[Cu hum Ac trans Cs]
+10.6 +4.6 66 +9 +11 прохладно 1018.7 1002.1 +10.4
00 10.07 С 2 50 км 10/0
[Cs]
+13.3 +6.2 62 +13 +19 холодно 1017.1 1000.7
03 10.07 С 2 50 км 10/0
[Cs]
+18.2 +8.3 52 +19 +28 по сезону 1014.6 998.4
06 10.07 З 1 50 км 8/0
[Cs]
+21.1 +9.6 48 +22 +30 комфорт 1012.1 996.2
09 10.07 В 1 50 км 9/0
[Cs]
+21.1 +8.4 44 +22 +25 комфорт 1010.1 994.2 +22.2
12 10.07 СВ 1 50 км 8/0
[Cs]
+18.9 +8.4 50 +21 +21 комфорт 1008.7 992.6
15 10.07 штиль 0 50 км 9/0
[Ac trans Ci fib]
+11.7 +6.7 71 +11 +11 прохладно 1008.1 991.7
18 10.07 штиль 0 50 км 9/0
[Ac trans Ci fib]
+8.6 +5.3 80 +8 +8 прохладно 1006.6 990.0
21 10.07 штиль 0 50 км 6/0
[Ci fib]
+11.8 +7.7 76 +11 +14 прохладно 1004.5 988.1 +8.0
00 11.07 СВ 2 50 км 1/0
[Ci fib]
+19.3 +9.2 52 +21 +28 комфорт 1002.0 986.1
03 11.07 ЮЗ 3 50 км 3/0
[Ac trans Ci fib]
+25.9 +13.4 46 +28 +36 жарко 998.9 983.4
06 11.07 Ю 2 50 км 3/1 1000 м
[Cu hum Ac trans]
+30.0 +14.5 39 +32 +38 жарко 996.2 981.0
09 11.07 Ю 3 50 км 9/5 1000 м
[Cb cap Ac trans Ci fib]
+28.7 +14.2 41 +31 +31 жарко 995.8 980.5 +31.1
12 11.07 СВ 3
{13}
50 км 8/8 1000 м
[Cb cap]
+22.8 +11.3 48 +25 +25 комфорт 998.7 983.0
15 11.07 С 2 50 км 9/8 1000 м
[Cb cap Ac trans]
+18.3 +11.2 63 +19 +19 тепло 999.5 983.5
18 11.07 В 1 50 км 10/10 1000 м
[Cb cap]
+17.0 +9.9 63 +18 +18 тепло 999.3 983.3
21 11.07 С 2 20 км слабый ливневой дождь 10/10 1000 м
[Cb cap]
+15.8 +10.8 72 +16 +16 тепло 1000.1 984.0 +15.8 0.1
00 12.07 С 2 50 км {ливн. осадки} 10/10 1000 м
[Cb cap]
+15.2 +12.3 83 +15 +15 по сезону 1000.1 984.0
03 12.07 С 3 50 км 10/8 1000 м
[Sc Ac trans]
+17.2 +12.3 73 +17 +18 прохладно 999.7 983.7
06 12.07 С 4 50 км 10/6 1000 м
[Cb cap Ac und]
+15.5 +11.0 75 +15 +15 холодно 999.8 983.7
09 12.07 С 3 50 км 9/6 1000 м
[Cb cap Ac trans]
+15.4 +10.5 73 +15 +15 холодно 1000.8 984.7 +17.7 0.3
12 12.07 С 2 50 км 9/4 1000 м
[Cb cap Ac trans]
+14.1 +9.4 73 +14 +14 холодно 1001.4 985.2
15 12.07 штиль 0 50 км 1/1 1000 м
[Sc]
+10.8 +7.9 82 +10 +10 прохладно 1002.0 985.6
18 12.07 ЮЗ 1 50 км ясно +7.2 +6.3 94 +6 +6 прохладно 1003.1 986.6
21 12.07 ЮЗ 1 50 км 6/0
[Ac trans]
+10.6 +9.0 90 +10 +12 прохладно 1003.4 987.0 +6.9
00 13.07 Ю 1 50 км осадки на расстоянии 9/1 1000 м
[Cu med, cong Ac trans]
+15.2 +8.1 63 +16 +20 по сезону 1003.2 987.1
03 13.07 Ю 3 50 км 4/3 1000 м
[Cu med, cong Ac trans]
+19.1 +6.9 45 +20 +26 тепло 1002.3 986.4
06 13.07 Ю 3 50 км 5/5 1000 м
[Cu med, cong]
+21.1 +6.1 38 +22 +25 комфорт 1000.9 985.2
09 13.07 Ю 2 50 км 1/1 1000 м
[Cu med, cong]
+21.9 +4.5 32 +22 +25 комфорт 999.9 984.2 +22.2
12 13.07 С 1 50 км 1/1 1000 м
[Sc]
+18.9 +5.6 42 +20 +21 тепло 1000.0 984.1
15 13.07 С 1 50 км 8/8 1000 м
[Cb cap]
+15.1 +5.0 51 +16 +16 тепло 1002.1 986.0
18 13.07 С 1 50 км ясно +10.6 +9.5 93 +10 +10 по сезону 1005.8 989.3
21 13.07 С 4 50 км ясно +13.8 +4.3 53 +13 +14 по сезону 1007.9 991.6 +10.0
00 14.07 СВ 4
{11}
50 км ясно +14.9 +4.4 49 +14 +19 прохладно 1009.3 993.0
03 14.07 СВ 4 50 км 1/1 1000 м
[Cu hum]
+17.4 +4.0 41 +17 +24 прохладно 1008.9 992.8
06 14.07 СВ 4 50 км 3/3 1000 м
[Cu hum]
+17.5 +4.8 43 +17 +21 холодно 1009.3 993.2
09 14.07 СВ 4 50 км 3/0
[Ci fib]
+17.4 +3.7 40 +17 +19 прохладно 1009.8 993.7 +18.5
12 14.07 СВ 4 50 км ясно +15.0 +2.5 43 +14 +14 холодно 1010.6 994.4
15 14.07 СВ 2 50 км 3/0
[Ci fib]
+10.1 +2.1 58 +9 +9 холодно 1011.4 994.8
18 14.07 СВ 1 50 км 8/8 1000 м
[Sc]
+6.5 +1.8 72 +6 +6 прохладно 1011.6 994.8
21 14.07 СВ 2 50 км 8/6 1000 м
[Sc Ci fib]
+9.6 +2.8 63 +8 +9 холодно 1011.4 994.8 +5.6
00 15.07 В 2 50 км 8/0
[Ac trans]
+14.2 +4.0 50 +14 +18 прохладно 1010.1 993.8
03 15.07 СВ 3 50 км 8/0
[Ac trans]
+18.3 +3.1 36 +19 +23 по сезону 1008.0 992.0
06 15.07 СЗ 2 50 км 8/0
[Ac trans Cs]
+21.9 +3.9 31 +22 +28 комфорт 1006.4 990.6
09 15.07 СЗ 2 50 км 8/0
[Cs]
+22.7 +4.6 31 +23 +25 комфорт 1006.4 990.6 +23.0
12 15.07 С 4 50 км 5/0
[Ac trans Ci fib]
+19.6 +3.7 35 +20 +20 тепло 1007.7 991.8
15 15.07 СВ 1 50 км 5/0
[Ac trans Ci fib]
+13.5 +3.0 49 +14 +14 по сезону 1009.2 992.9
18 15.07 С 2 50 км 9/0
[Ac trans Cc]
+10.5 +1.8 55 +9 +10 по сезону 1010.4 993.8
21 15.07 С 2 50 км 8/0
[Ac trans Ci fib]
+13.7 +4.1 52 +13 +15 по сезону 1010.6 994.3 +10.4
00 16.07 СВ 3 50 км 8/0
[Ac trans]
+17.1 +5.3 46 +17 +20 по сезону 1010.1 994.0

 

Местоположение метеостанции Верхоянск (Якутия, Россия): широта 67.57 долгота 133.40 высота над уровнем моря 136 м.

В архиве по умолчанию представлена погода в Верхоянске за последнюю неделю. Архивные данные за месяц целиком и за предыдущие месяцы, начиная с января 2011 года, Вы можете получить, выбрав интересующий диапазон дат из раскрывающегося списка и нажав кнопку "Ввод!".


*Определитесь, кто Вы:
робот инопланетянин человек

Внимание! Время в таблицах - всемирное. Для получения местного времени необходимо прибавить поправку, которая в Верхоянске равна 10 ч.

Смотрите также архив погоды в соседних городах и на ближайших метеорологических станциях:

Погода в Батагае (Якутия, Россия) (52 км)
Погода в Екюччю (Якутия, Россия) (118 км)
Погода в Батагай-Алыте (Якутия, Россия) (129 км)
Погода в Усть-Чарках (Якутия, Россия) (162 км)
Погода в Иэме (Якутия, Россия) (274 км)
Погода в Усть-Куйге (Якутия, Россия) (284 км)
Погода в Себян-Кюеле (Якутия, Россия) (294 км)
Погода в Депутатском (Якутия, Россия) (329 км)
Погода в Юбилейной (Якутия, Россия) (373 км)
Погода в Джарджане (Якутия, Россия) (409 км)

Пояснения к столбцам:

Ветер - указаны скорость ветра в м/с - средняя за 10 мин, порывы в срок и между сроками (в фигурных скобках) и направление, откуда дует ветер: С - северный, СВ - северо-восточный, В - восточный, ЮВ - юго-восточный, Ю - южный, ЮЗ - юго-западный, З - западный, СЗ - северо-западный.
Видимость - горизонтальная дальность видимости в метрах или километрах. При видимости от 1 до 10 км при отсутствии осадков обычно наблюдается дымка, при ухудшении видимости до 1 км и менее - туман. В сухую погоду видимость может ухудшаться дымом, пылью или мглою.
Явления - указаны атмосферные явления, наблюдавшиеся в срок или в последний час перед сроком; фигурными скобками обозначены явления, наблюдавшиеся между сроками (за 1-3 часа до срока); квадратными скобками обозначены град или гололедные отложения с указанием их диаметра в мм.
Облачность - указаны через наклонную черту общая и нижняя облачность в баллах и высота нижней границы облаков в метрах; квадратными скобками обозначены формы облаков: Ci - перистые, Cs - перисто-слоистые, Cc - перисто-кучевые, Ac - высококучевые, As - высокослоистые, Sc - слоисто-кучевые, Ns - слоисто-дождевые, Cu - кучевые, Cb - кучево-дождевые. Подробнее классификацию облаков см. в Атласе облаков (PDF).
T - Температура воздуха - температура, измеренная на высоте 2 м над землей.
Td - Температура точки росы - температура, при понижении до которой содержащийся в воздухе водяной пар достигнет насыщения.
f - Относительная влажность воздуха - влажноcть воздуха, измеренная на высоте 2 м над землей.
Te - Эффективная температура - температура, которую ощущает одетый по сезону человек в тени. Характеристика душности погоды. При расчете учитывается влияние влажности воздуха и скорости ветра на теплоощущения человека.
Tes - Эффективная температура на солнце - температура, которую ощущает человек, с поправкой на солнечный нагрев. Характеристика знойности погоды. Зависит от высоты солнца над горизонтом, облачности и скорости ветра. Ночью, в пасмурную погоду, а также при ветре 12 м/с и более поправка равна нулю.
P - Атмосферное давление - приведенное к уровню моря атмосферное давление.
Po - Атмосферное давление - измеренное на уровне метеостанции атмосферное давление.
Tmin - Минимальная температура - минимум температуры воздуха на высоте 2 м над землей.
Tmax - Максимальная температура - максимум температуры воздуха на высоте 2 м над землей.
R - Количество осадков - Количество выпавших осадков за период времени, мм. При наведении курсора мыши на число - период времени, за который выпало указанное количество осадков.
R24 - Количество осадков - Количество выпавших осадков за 24 часа, мм.
S - Снежный покров - Высота снежного покрова, см. При наведении курсора мыши на число - состояние снежного покрова и степень покрытия местности в баллах.